STARLINK-34668, 64814

Orbit data source: Space-Track

STARLINK-34668, 64814 is a payload satellite owned by SpaceX/Seattle (US) in LEO that was launched on Wed, 16 Jul 2025 UTC via an FALCON 9 launch vehicle from the Air Force Western Test Range (AFWTR). Payload-class satellites include a variety of spacecraft equipped with specific instruments for various scientific and technological missions. These include communications satellites like Starlink; space stations such as the ISS; scientific satellites like the Hubble; Earth observation satellites from companies like Planet Labs, Umbra, and HawkEye 360; GPS; miniature CubeSats for education and research; and military/defense satellites.

Loading next visibility...
Identifier
64814, 2025-150AA
Orbit
LEO
Country
Flag of USUS
Related business
Manufacturer
SpaceX/Seattle
Mission
Operational Commercial Communications
Bus & Motor
STARLINK V2MO, Unknown motor
Mass
575 kg wet, ~530 kg dry
Launch date (UTC)
2025-07-16 (11 months ago)
Launch vehicle
FALCON 9
Launch site
Air Force Western Test Range (AFWTR)
Object type
Payload
Rocket body
Debris
Shape & HBR
Box + 2 Pan, 17.7 m
Radar Cross Section
36.964 m², Large (>1 m²)

Expand to show TLE details & history
Last TLE update: 9 hours ago

TLE from 9 hours ago
0 STARLINK-34668
1 64814U 25150AA  26171.46420726  .00003750  00000-0  32178-3 0  9993
2 64814  69.9997 235.2256 0003807 271.5211  88.5512 14.98345170 51902
Epoch: 2026-06-20T11:08Z
TLE epoch observation values (Epoch: 2026-06-20T11:08:27.507Z)
Latitude
-0.00001°
Longitude
159.43253°
Altitude
574.367 km
Speed
7.574 km/s
True Right ascension
15h 40m 54s
True Declination
0° 00' 00"
Sunlit
Object was in full shadow at epoch
Visualization orbit readout
Latitude
Unknown
Longitude
Unknown
Altitude
Unknown
Speed
Unknown
Apparent Right ascension
Unknown
Apparent Declination
Unknown
Sunlit
N/A
Visualization observer readout
Local Sidereal Time
07:16:31
Azimuth
Unknown
Elevation
Unknown
Doppler factor
Unknown
Orbital elements
Apogee altitude
572.602 km
Perigee altitude
567.312 km
Semi-major axis
6,948.094 km
Eccentricity
0.00038
Inclination
69.9997°
RAAN
235.2256°
Arg. of periapsis
271.5211°
True anomaly
88.59481°
Mean anomaly
88.5512°
Eccentric anomaly
88.57301°
Mean motion
3.74753 °/min
Orbital period
96.06 mins
BSTAR
0.00032178
Loading maneuver chart data...
Computing Atmospheric mass density...
Loading historical data...
Loading historical data...
Loading historical data...
Loading historical data...
Loading historical data...
Loading historical data...
Loading historical data...

Documentation

Showing up to 5 results
|